CST,Max TemperatureF,Mean TemperatureF,Min TemperatureF,Max Dew PointF,MeanDew PointF,Min DewpointF,Max Humidity, Mean Humidity, Min Humidity, Max Sea Level PressureIn, Mean Sea Level PressureIn, Min Sea Level PressureIn, Max VisibilityMiles, Mean VisibilityMiles, Min VisibilityMiles, Max Wind SpeedMPH, Mean Wind SpeedMPH, Max Gust SpeedMPH,PrecipitationIn, CloudCover, Events, WindDirDegrees
2012-12-1,77,61,45,57,49,43,96,81,39,30.32,30.27,30.24,10,7,2,8,1,,0.00,1,,128
2012-12-2,77,60,44,59,50,43,100,85,45,30.36,30.29,30.25,10,7,0,4,1,,0.00,3,Fog,77
2012-12-3,78,64,50,60,52,48,100,85,37,30.31,30.26,30.21,10,4,0,10,1,,0.00,5,Fog,150
2012-12-4,78,63,48,64,53,46,100,89,50,30.30,30.24,30.19,10,4,0,12,1,17,0.00,2,Fog,170
2012-12-5,73,62,50,60,54,48,100,87,59,30.21,30.14,30.08,10,6,0,6,1,,0.00,1,Fog,106
2012-12-6,78,62,46,58,52,44,94,79,45,30.09,30.04,29.99,10,9,1,8,1,,0.00,2,,73
2012-12-7,66,60,53,61,56,54,100,92,78,30.07,30.01,29.97,10,4,0,9,2,,0.00,5,Fog,81
2012-12-8,75,65,54,64,59,53,97,87,60,30.05,30.01,29.95,10,6,0,7,2,,0.02,5,Fog-Rain,123
2012-12-9,75,65,55,64,60,54,97,86,60,30.11,30.03,29.96,10,6,0,8,1,,0.00,4,Fog,156
2012-12-10,77,66,55,67,61,52,100,86,62,29.97,29.89,29.78,10,5,0,23,3,31,0.00,5,Fog-Rain,220
2012-12-11,53,48,43,50,42,37,93,79,68,30.16,30.04,29.92,10,9,4,10,7,,0.12,7,Rain,353
2012-12-12,53,44,34,41,38,32,92,79,59,30.25,30.18,30.10,10,9,6,7,4,,0.00,4,Rain,360
2012-12-13,62,48,35,46,39,34,93,86,53,30.34,30.30,30.25,10,6,0,10,5,,0.00,2,Fog,26
2012-12-14,52,42,32,45,40,30,100,92,76,30.35,30.25,30.18,10,3,0,7,2,,0.00,5,Fog,65
2012-12-15,69,56,44,57,50,43,100,86,60,30.19,30.12,30.06,10,6,0,7,2,,0.00,5,Fog,91
2012-12-16,73,65,57,67,61,55,100,90,73,30.05,29.96,29.90,10,5,0,17,2,25,0.01,7,Fog-Rain,185
2012-12-17,71,65,57,67,61,55,94,91,83,29.89,29.84,29.77,10,7,0,22,6,31,1.01,6,Fog-Rain-Thunderstorm,219
2012-12-18,69,54,39,57,45,37,100,82,32,30.06,29.98,29.87,10,6,0,7,3,,0.00,0,Fog,303
2012-12-19,73,54,34,55,46,32,94,80,46,30.12,30.06,30.00,10,10,8,10,2,,0.00,1,Rain,132
2012-12-20,73,60,46,70,59,28,94,81,31,30.17,29.90,29.81,10,6,0,23,10,32,0.74,6,Fog-Rain-Thunderstorm,228
2012-12-21,55,42,30,27,20,12,82,43,18,30.34,30.26,30.17,10,10,10,18,11,24,0.00,0,,308
2012-12-22,61,43,25,34,24,17,92,58,20,30.42,30.33,30.27,10,10,10,10,5,17,0.00,0,,334
2012-12-23,55,42,28,46,37,25,93,80,55,30.28,30.20,30.09,10,10,10,0,0,,0.00,1,,-1
2012-12-24,71,60,48,64,59,44,100,89,73,30.05,29.94,29.90,10,6,0,18,5,28,0.15,7,Fog-Rain,207
2012-12-25,72,66,59,66,63,54,100,88,77,29.92,29.79,29.62,10,6,0,33,6,44,0.81,7,Fog-Rain-Thunderstorm,167
2012-12-26,57,47,32,53,35,29,88,67,50,30.14,29.92,29.67,10,10,10,23,12,37,0.00,3,,294
2012-12-27,54,43,32,36,31,28,93,74,45,30.20,30.13,30.09,10,9,7,9,3,18,0.00,3,,345
2012-12-28,57,44,32,57,46,29,100,84,62,30.12,29.92,29.78,10,6,1,8,3,,0.95,6,Rain,94
2012-12-29,62,50,37,61,39,27,94,73,52,30.36,30.10,29.78,10,10,5,18,12,26,0.00,6,,322
2012-12-30,54,41,28,32,27,24,92,67,35,30.51,30.42,30.37,10,10,7,10,5,16,0.00,0,,359
2012-12-31,62,45,28,52,43,26,92,76,59,30.38,30.28,30.15,10,10,8,6,2,,0.00,5,,85